リニア彗星

C/2009 T3 ( LINEAR )

English version
Home page
Updated on April 6, 2013

---------------------------------------------------------------------

・ プロフィール

発見日 2009年10月14日
発見光度 19.3等
発見者 Lincoln Laboratory Near-Earth Asteroid Research project

・ 写真集

・ 軌道要素

Epoch 2010 Jan. 4.0 TT = JDT 2455200.5
T 2010 Jan. 12.05892 TT                                 MPC
q   2.2811359            (2000.0)            P               Q
z  +0.0002259      Peri.   32.44894     +0.81833134     +0.35779506
 +/-0.0000019      Node    60.09317     +0.35057651     -0.93088951
e   0.9994846      Incl.  148.74196     +0.45544477     +0.07367102
From 374 observations 2009 Oct. 14-2010 Aug. 11, mean residual 0".5.

・ 光度変化

        m1 = 12.5 + 5 logΔ + 10.0 log r

---------------------------------------------------------------------

軌道要素はM.P.E.C. 2013-B90に掲載されたものです。
光度グラフはComet for Windowsで作成したものです。

---------------------------------------------------------------------

Copyright(C) Seiichi Yoshida (comet@aerith.net). All rights reserved.